Location: Catstown
(52.4386°N, 7.2633°W)
Time: 22:53:09
(UTC+00:00)

Cosmos 2082 Rocket - Pass Details

Date: 18 September 2020
Orbit: 834 x 853 km, 71.0° (Epoch: 31 October)

Event Time Altitude Azimuth Distance (km) Brightness Sun altitude
Rises 20:37:10 0° 329° (NNW) 3,394 6.4 -18.5°
Reaches altitude 10° 20:39:58 10° 341° (NNW) 2,457 5.3 -18.9°
Maximum altitude 20:44:48 28° 40° (NE) 1,516 3.4 -19.5°
Enters shadow 20:46:42 23° 72° (ENE) 1,698 3.4 -19.8°
